Voltar ao catálogo

TITAN 3C TRANSTAGE DEB

AtivoLEO
NORAD 2050·DEBRIS·🇺🇸 United States

Lançado Oct 15, 1965 de Cape Canaveral Space Force Station

Loading…

Próximas Passagens (próximas 24 horas)

TLE

AtualizadoSource: Space-Track

Época: Sep 14, 2026, 15:19 UTC

1 02050U 65082JL  26257.63853357  .00000895  00000-0  20092-3 0  9998
2 02050  32.2642  79.3913 0081996 150.1762 210.3589 14.51926282171642

Acompanhe TITAN 3C TRANSTAGE DEB em tempo real com AllMySat

Download on the App Store